• En España
  • Lista de países
  • Para 7 días
  • Temperatura del agua
  • Mapa Satelital
  • El tiempo en el mapa
  • Informadores
  • user-avatar
    Iniciar sesión

    Tiempo cada hora Dubniki

    Hoy, 20 Agosto, Lunes

    Tiempo Temperatura Precipitaciones Viento Presión Humedad
    00:00 +12°C° 0 mm 2 mps 747 mmHg 76%
    01:00 +12°C° 0 mm 2 mps 746 mmHg 78%
    02:00 +12°C° 0 mm 2 mps 746 mmHg 80%
    03:00 +12°C° 0 mm 2 mps 746 mmHg 82%
    04:00 +12°C° 0 mm 2 mps 746 mmHg 83%
    05:00 +12°C° 0 mm 2 mps 746 mmHg 83%
    06:00 +13°C° 0 mm 2 mps 745 mmHg 84%
    07:00 +14°C° 0 mm 3 mps 745 mmHg 78%
    08:00 +17°C° 0 mm 3 mps 745 mmHg 71%
    09:00 +19°C° 0 mm 4 mps 745 mmHg 65%
    10:00 +20°C° 0 mm 4 mps 744 mmHg 62%
    11:00 +21°C° 0 mm 4 mps 744 mmHg 59%
    12:00 +22°C° 0 mm 5 mps 744 mmHg 56%
    13:00 +22°C° 0,1 mm 4 mps 743 mmHg 58%
    14:00 +22°C° 0,1 mm 4 mps 743 mmHg 61%
    15:00 +23°C° 0,1 mm 4 mps 743 mmHg 63%
    16:00 +22°C° 0,4 mm 4 mps 742 mmHg 70%
    17:00 +21°C° 0,4 mm 3 mps 742 mmHg 77%
    18:00 +20°C° 0,4 mm 3 mps 742 mmHg 84%
    19:00 +19°C° 0,2 mm 3 mps 742 mmHg 87%
    20:00 +18°C° 0,2 mm 3 mps 742 mmHg 90%
    21:00 +16°C° 0,2 mm 3 mps 741 mmHg 93%
    22:00 +16°C° 0,1 mm 3 mps 741 mmHg 94%
    23:00 +16°C° 0,1 mm 2 mps 741 mmHg 94%

    Mañana, 21 Agosto, Martes

    Tiempo Temperatura Precipitaciones Viento Presión Humedad
    00:00 +16°C° 0,1 mm 2 mps 741 mmHg 95%
    01:00 +16°C° 0,1 mm 2 mps 741 mmHg 95%
    02:00 +16°C° 0,1 mm 2 mps 741 mmHg 96%
    03:00 +16°C° 0,1 mm 2 mps 741 mmHg 96%
    04:00 +16°C° 0,1 mm 2 mps 741 mmHg 96%
    05:00 +16°C° 0,1 mm 2 mps 741 mmHg 95%
    06:00 +17°C° 0,1 mm 2 mps 741 mmHg 95%
    07:00 +17°C° 0,2 mm 2 mps 741 mmHg 92%
    08:00 +18°C° 0,2 mm 2 mps 741 mmHg 89%
    09:00 +19°C° 0,2 mm 2 mps 741 mmHg 86%
    10:00 +20°C° 0,4 mm 3 mps 740 mmHg 80%
    11:00 +22°C° 0,4 mm 3 mps 740 mmHg 75%
    12:00 +23°C° 0,4 mm 4 mps 740 mmHg 70%
    13:00 +23°C° 0,3 mm 4 mps 739 mmHg 68%
    14:00 +25°C° 0,3 mm 4 mps 739 mmHg 66%
    15:00 +25°C° 0,3 mm 5 mps 738 mmHg 65%
    16:00 +23°C° 0,1 mm 5 mps 738 mmHg 68%
    17:00 +23°C° 0,1 mm 4 mps 738 mmHg 72%
    18:00 +22°C° 0,1 mm 4 mps 737 mmHg 75%
    19:00 +21°C° 0 mm 4 mps 737 mmHg 77%
    20:00 +20°C° 0 mm 5 mps 736 mmHg 79%
    21:00 +20°C° 0 mm 5 mps 736 mmHg 80%
    22:00 +19°C° 0,3 mm 5 mps 736 mmHg 82%
    23:00 +19°C° 0,3 mm 5 mps 735 mmHg 84%

    Pasado mañana, 22 Agosto, Miércoles

    Tiempo Temperatura Precipitaciones Viento Presión Humedad
    00:00 +17°C° 0,3 mm 5 mps 735 mmHg 86%
    01:00 +17°C° 0,8 mm 5 mps 735 mmHg 89%
    02:00 +16°C° 0,8 mm 5 mps 735 mmHg 91%
    03:00 +16°C° 0,8 mm 5 mps 735 mmHg 93%
    04:00 +15°C° 0,3 mm 5 mps 735 mmHg 91%
    05:00 +13°C° 0,3 mm 5 mps 736 mmHg 89%
    06:00 +12°C° 0,3 mm 4 mps 736 mmHg 87%
    07:00 +13°C° 0 mm 5 mps 736 mmHg 82%
    08:00 +14°C° 0 mm 5 mps 737 mmHg 76%
    09:00 +14°C° 0 mm 5 mps 737 mmHg 71%
    10:00 +15°C° 0 mm 5 mps 737 mmHg 66%
    11:00 +16°C° 0 mm 5 mps 737 mmHg 61%
    12:00 +19°C° 0 mm 5 mps 738 mmHg 57%
    13:00 +17°C° 0,5 mm 5 mps 738 mmHg 61%
    14:00 +17°C° 0,5 mm 5 mps 738 mmHg 66%
    15:00 +16°C° 0,5 mm 6 mps 738 mmHg 70%
    16:00 +15°C° 0,3 mm 5 mps 738 mmHg 74%
    17:00 +14°C° 0,3 mm 5 mps 739 mmHg 77%
    18:00 +13°C° 0,3 mm 4 mps 739 mmHg 81%
    19:00 +12°C° 0 mm 4 mps 739 mmHg 82%
    20:00 +11°C° 0 mm 4 mps 740 mmHg 83%
    21:00 +10°C° 0 mm 4 mps 740 mmHg 85%
    22:00 +10°C° 0 mm 4 mps 740 mmHg 85%
    23:00 +8°C° 0 mm 4 mps 741 mmHg 85%

    23 Agosto, Jueves

    Tiempo Temperatura Precipitaciones Viento Presión Humedad
    00:00 +7°C° 0 mm 4 mps 741 mmHg 85%
    01:00 +7°C° 0 mm 4 mps 741 mmHg 86%
    02:00 +7°C° 0 mm 4 mps 742 mmHg 87%
    03:00 +7°C° 0 mm 4 mps 742 mmHg 88%
    04:00 +7°C° 0 mm 4 mps 742 mmHg 87%
    05:00 +7°C° 0 mm 5 mps 743 mmHg 86%
    06:00 +7°C° 0 mm 5 mps 743 mmHg 85%
    07:00 +9°C° 0 mm 6 mps 743 mmHg 77%
    08:00 +10°C° 0 mm 6 mps 743 mmHg 68%
    09:00 +12°C° 0 mm 7 mps 743 mmHg 60%
    10:00 +14°C° 0 mm 7 mps 743 mmHg 56%
    11:00 +15°C° 0 mm 7 mps 743 mmHg 53%
    12:00 +16°C° 0 mm 7 mps 743 mmHg 50%
    13:00 +16°C° 0 mm 7 mps 744 mmHg 49%
    14:00 +17°C° 0 mm 7 mps 744 mmHg 49%
    15:00 +17°C° 0 mm 7 mps 744 mmHg 49%
    16:00 +16°C° 0 mm 6 mps 744 mmHg 54%
    17:00 +15°C° 0 mm 5 mps 744 mmHg 59%
    18:00 +15°C° 0 mm 4 mps 744 mmHg 64%
    19:00 +14°C° 0 mm 4 mps 745 mmHg 66%
    20:00 +13°C° 0 mm 4 mps 745 mmHg 68%
    21:00 +12°C° 0 mm 3 mps 745 mmHg 70%
    22:00 +12°C° 0 mm 3 mps 745 mmHg 70%
    23:00 +12°C° 0 mm 3 mps 745 mmHg 71%

    24 Agosto, Viernes

    Tiempo Temperatura Precipitaciones Viento Presión Humedad
    00:00 +11°C° 0 mm 3 mps 745 mmHg 72%
    01:00 +11°C° 0,1 mm 4 mps 745 mmHg 73%
    02:00 +12°C° 0,1 mm 4 mps 745 mmHg 74%
    03:00 +12°C° 0,1 mm 4 mps 745 mmHg 76%
    04:00 +12°C° 0,1 mm 4 mps 745 mmHg 79%
    05:00 +12°C° 0,1 mm 5 mps 745 mmHg 81%
    06:00 +12°C° 0,1 mm 5 mps 745 mmHg 84%
    07:00 +13°C° 0 mm 5 mps 745 mmHg 81%
    08:00 +14°C° 0 mm 5 mps 745 mmHg 78%
    09:00 +15°C° 0 mm 5 mps 745 mmHg 76%
    10:00 +16°C° 0 mm 5 mps 745 mmHg 73%
    11:00 +17°C° 0 mm 5 mps 745 mmHg 70%
    12:00 +19°C° 0 mm 5 mps 745 mmHg 67%
    13:00 +20°C° 0 mm 5 mps 745 mmHg 66%
    14:00 +21°C° 0 mm 5 mps 746 mmHg 65%
    15:00 +21°C° 0 mm 4 mps 746 mmHg 63%
    16:00 +20°C° 0 mm 3 mps 746 mmHg 69%
    17:00 +19°C° 0 mm 3 mps 746 mmHg 75%
    18:00 +18°C° 0 mm 2 mps 746 mmHg 80%
    19:00 +18°C° 0 mm 1 mps 746 mmHg 84%
    20:00 +16°C° 0 mm 1 mps 746 mmHg 87%
    21:00 +15°C° 0 mm 1 mps 746 mmHg 90%
    22:00 +14°C° 0 mm 1 mps 746 mmHg 91%
    23:00 +14°C° 0 mm 1 mps 746 mmHg 92%

    25 Agosto, Sábado

    Tiempo Temperatura Precipitaciones Viento Presión Humedad
    00:00 +14°C° 0 mm 1 mps 747 mmHg 94%
    01:00 +13°C° 0 mm 1 mps 747 mmHg 94%
    02:00 +13°C° 0 mm 1 mps 747 mmHg 95%
    03:00 +13°C° 0 mm 1 mps 747 mmHg 95%
    04:00 +13°C° 0 mm 1 mps 747 mmHg 94%
    05:00 +14°C° 0 mm 1 mps 747 mmHg 94%
    06:00 +14°C° 0 mm 1 mps 748 mmHg 93%
    07:00 +16°C° 0 mm 1 mps 748 mmHg 87%
    08:00 +18°C° 0 mm 1 mps 748 mmHg 81%
    09:00 +19°C° 0 mm 2 mps 748 mmHg 74%
    10:00 +20°C° 0,1 mm 2 mps 748 mmHg 72%
    11:00 +21°C° 0,1 mm 2 mps 748 mmHg 70%
    12:00 +23°C° 0,1 mm 2 mps 747 mmHg 67%
    13:00 +23°C° 0,2 mm 2 mps 747 mmHg 69%
    14:00 +23°C° 0,2 mm 2 mps 747 mmHg 70%
    15:00 +23°C° 0,2 mm 2 mps 747 mmHg 71%
    16:00 +21°C° 0,1 mm 2 mps 747 mmHg 75%
    17:00 +21°C° 0,1 mm 1 mps 747 mmHg 78%
    18:00 +21°C° 0,1 mm 1 mps 746 mmHg 81%
    19:00 +20°C° 0 mm 1 mps 746 mmHg 84%
    20:00 +18°C° 0 mm 1 mps 746 mmHg 87%
    21:00 +15°C° 0 mm 0 mps 746 mmHg 90%
    22:00 +15°C° 0 mm 0 mps 747 mmHg 90%
    23:00 +14°C° 0 mm 0 mps 747 mmHg 90%
    Mostrar más